Powrót do katalogu

HYPERFIELD-1B

AktywnyNaukaSSO
NORAD 64552·PAYLOAD·🇫🇮 Finland

Wystrzelony Jun 23, 2025 z Vandenberg Space Force Base

Loading…

Następne Przeloty (najbliższe 24 godziny)

TLE

ŚwieżeSource: Space-Track

Epoka: Sep 14, 2026, 13:39 UTC

1 64552U 25135AA  26257.56899686  .00003215  00000-0  13999-3 0  9992
2 64552  97.4755  12.3729 0001558  55.7582 304.3802 15.22951472 68480

Śledź HYPERFIELD-1B w czasie rzeczywistym z AllMySat

Download on the App Store